ARIANE 1 DEB, 28557

Orbit data source: Space-Track

ARIANE 1 DEB, 28557 is space debris in HEO originally from a launch on Mon, 24 Dec 1979 UTC launched from the French Guiana (FRGUI). Debris objects in space refer to the collection of defunct objects orbiting the Earth. Examples of debris include non-operational satellites, rocket bodies, and fragments generated from explosions, collisions, or faulty payload assembly.

Loading next visibility...
Identifier
28557, 1979-104W
Orbit
HEO
Country
Flag of FRFR
Related business
Manufacturer
Unknown
Mission
Spacecraft
Bus & Motor
Unknown
Mass
Unknown
Launch date (UTC)
1979-12-24 (46 years ago)
Launch vehicle
Unknown
Launch site
French Guiana (FRGUI)
Object type
Payload
Rocket body
Debris
Shape & HBR
Unknown shape, 0.1 m
Radar Cross Section
Medium (>0.1 m² and <1 m²)

Expand to show TLE details & history
Last TLE update: 4 months ago

TLE from 4 months ago
0 ARIANE 1 DEB
1 28557U 79104W   26054.36139245 -.00000066  00000-0 -17269-2 0  9999
2 28557  19.8194  34.9289 7391855 172.1495 357.5462  1.97528548 29410
Epoch: 2026-02-23T08:40Z
TLE epoch observation values (Epoch: 2026-02-23T08:40:24.307Z)
Latitude
9.75871°
Longitude
-96.78503°
Altitude
845.521 km
Speed
9.773 km/s
True Right ascension
12h 26m 17s
True Declination
9° 42' 08"
Sunlit
Object was in full shadow at epoch
Visualization orbit readout
Latitude
Unknown
Longitude
Unknown
Altitude
Unknown
Speed
Unknown
Apparent Right ascension
Unknown
Apparent Declination
Unknown
Sunlit
N/A
Visualization observer readout
Local Sidereal Time
02:14:39
Azimuth
Unknown
Elevation
Unknown
Doppler factor
Unknown
Orbital elements
Apogee altitude
40,294.972 km
Perigee altitude
621.13 km
Semi-major axis
26,836.188 km
Eccentricity
0.73919
Inclination
19.8194°
RAAN
34.9289°
Arg. of periapsis
172.1495°
True anomaly
336.29424°
Mean anomaly
357.5462°
Eccentric anomaly
350.7071°
Mean motion
0.4937 °/min
Orbital period
729.19 mins
BSTAR
-0.0017269
Loading maneuver chart data...
Computing Atmospheric mass density...
Loading historical data...
Loading historical data...
Loading historical data...
Loading historical data...
Loading historical data...
Loading historical data...
Loading historical data...

Documentation

Showing up to 5 results
|